| time (UTC) | temp C | wind direction | speed KPH | gust KPH | rain 1hr cm | rain 24hr cm | rain mn cm | humidity % | barometer mb |
| 20260509042006 | 4 | 90 | 1.6 | 3.2 | 0.00 | 0.00 | 0.00 | 97 | 1019.7 |
| 20260509041008 | 3 | 45 | 0.0 | 1.6 | 0.00 | 0.00 | 0.00 | 97 | 1019.6 |
| 20260509040011 | 3 | 45 | 0.0 | 0.0 | 0.00 | 0.00 | 0.00 | 97 | 1019.8 |
| 20260509035006 | 3 | 45 | 0.0 | 0.0 | 0.00 | 0.00 | 0.00 | 96 | 1019.8 |
| 20260509034008 | 3 | 45 | 1.6 | 3.2 | 0.00 | 0.00 | 0.00 | 96 | 1019.7 |
| 20260509033010 | 3 | 90 | 1.6 | 3.2 | 0.00 | 0.00 | 0.00 | 96 | 1019.8 |
| 20260509032007 | 3 | 0 | 0.0 | 1.6 | 0.00 | 0.00 | 0.00 | 96 | 1019.8 |
| 20260509031007 | 3 | 180 | 1.6 | 3.2 | 0.00 | 0.00 | 0.00 | 96 | 1019.7 |
| 20260509025007 | 3 | 45 | 0.0 | 1.6 | 0.00 | 0.00 | 0.00 | 95 | 1019.6 |
| 20260509024008 | 3 | 45 | 0.0 | 1.6 | 0.00 | 0.00 | 0.00 | 95 | 1019.6 |
| 20260509023010 | 3 | 45 | 0.0 | 0.0 | 0.00 | 0.00 | 0.00 | 95 | 1019.6 |
| 20260509022008 | 4 | 45 | 0.0 | 1.6 | 0.00 | 0.00 | 0.00 | 95 | 1019.6 |
| 20260509021008 | 4 | 0 | 0.0 | 3.2 | 0.00 | 0.00 | 0.00 | 95 | 1019.6 |
| 20260509020011 | 5 | 0 | 0.0 | 1.6 | 0.00 | 0.00 | 0.00 | 95 | 1019.5 |
| 20260509014008 | 5 | 180 | 1.6 | 4.8 | 0.00 | 0.00 | 0.00 | 95 | 1019.4 |
| 20260509013010 | 5 | 270 | 1.6 | 4.8 | 0.00 | 0.00 | 0.00 | 94 | 1019.4 |
| 20260509012009 | 6 | 90 | 0.0 | 3.2 | 0.00 | 0.00 | 0.00 | 94 | 1019.1 |
| 20260509011007 | 6 | 0 | 0.0 | 3.2 | 0.00 | 0.00 | 0.00 | 94 | 1019.2 |
| 20260509010011 | 7 | 0 | 1.6 | 3.2 | 0.00 | 0.00 | 0.00 | 94 | 1019.1 |
| 20260509005009 | 7 | 90 | 0.0 | 1.6 | 0.00 | 0.00 | 0.00 | 94 | 1019.4 |
| 20260509004008 | 7 | 90 | 1.6 | 3.2 | 0.00 | 0.00 | 0.00 | 94 | 1019.4 |
| 20260509003009 | 6 | 135 | 0.0 | 1.6 | 0.00 | 0.00 | 0.00 | 94 | 1019.5 |
| 20260509002006 | 6 | 90 | 0.0 | 0.0 | 0.00 | 0.00 | 0.00 | 94 | 1019.6 |
| 20260509001008 | 6 | 90 | 0.0 | 0.0 | 0.00 | 0.00 | 0.00 | 94 | 1019.6 |
| 20260508234009 | 6 | 225 | 0.0 | 3.2 | 0.00 | 0.00 | 0.00 | 94 | 1019.8 |
| 20260508233009 | 6 | 45 | 0.0 | 1.6 | 0.00 | 0.00 | 0.00 | 93 | 1019.6 |
| 20260508232009 | 7 | 180 | 1.6 | 3.2 | 0.00 | 0.00 | 0.00 | 92 | 1019.7 |
| 20260508231008 | 7 | 45 | 0.0 | 3.2 | 0.00 | 0.00 | 0.00 | 92 | 1019.7 |
| 20260508230014 | 7 | 225 | 0.0 | 3.2 | 0.00 | 0.00 | 0.00 | 92 | 1019.7 |
| 20260508225009 | 7 | 135 | 0.0 | 1.6 | 0.00 | 0.00 | 0.00 | 91 | 1019.6 |
| 20260508224009 | 8 | 0 | 0.0 | 3.2 | 0.00 | 0.00 | 0.00 | 91 | 1019.5 |
| 20260508223010 | 8 | 45 | 1.6 | 4.8 | 0.00 | 0.00 | 0.00 | 91 | 1019.5 |
| 20260508222008 | 7 | 45 | 1.6 | 3.2 | 0.00 | 0.00 | 0.00 | 93 | 1019.5 |
| 20260508221006 | 7 | 45 | 0.0 | 3.2 | 0.00 | 0.00 | 0.00 | 94 | 1019.4 |
| 20260508220012 | 7 | 45 | 0.0 | 1.6 | 0.00 | 0.00 | 0.00 | 94 | 1019.6 |
| 20260508215007 | 6 | 45 | 0.0 | 1.6 | 0.00 | 0.00 | 0.00 | 94 | 1019.5 |
| 20260508214013 | 6 | 45 | 0.0 | 3.2 | 0.00 | 0.00 | 0.00 | 94 | 1019.6 |
| 20260508212006 | 6 | 180 | 0.0 | 1.6 | 0.00 | 0.00 | 0.00 | 93 | 1019.5 |
| 20260508211006 | 6 | 180 | 0.0 | 3.2 | 0.00 | 0.00 | 0.00 | 93 | 1019.6 |
| 20260508205009 | 6 | 45 | 0.0 | 1.6 | 0.00 | 0.00 | 0.00 | 92 | 1019.4 |
| 20260508204005 | 6 | 180 | 0.0 | 1.6 | 0.00 | 0.00 | 0.00 | 92 | 1019.3 |
| 20260508201011 | 7 | 45 | 0.0 | 1.6 | 0.00 | 0.00 | 0.00 | 89 | 1018.9 |
| 20260508200009 | 7 | 180 | 0.0 | 3.2 | 0.00 | 0.00 | 0.00 | 89 | 1018.9 |
| 20260508195006 | 8 | 180 | 0.0 | 1.6 | 0.00 | 0.00 | 0.00 | 88 | 1019.0 |
| 20260508194009 | 8 | 180 | 0.0 | 1.6 | 0.00 | 0.00 | 0.00 | 87 | 1018.7 |
| 20260508193007 | 8 | 45 | 0.0 | 1.6 | 0.00 | 0.00 | 0.00 | 85 | 1018.5 |
| 20260508192005 | 10 | 45 | 0.0 | 1.6 | 0.00 | 0.00 | 0.00 | 83 | 1018.4 |
| 20260508191008 | 10 | 0 | 1.6 | 6.4 | 0.00 | 0.00 | 0.00 | 81 | 1018.2 |
| 20260508190011 | 10 | 45 | 3.2 | 6.4 | 0.00 | 0.00 | 0.00 | 80 | 1017.9 |
| 20260508185008 | 11 | 45 | 4.8 | 9.7 | 0.00 | 0.00 | 0.00 | 78 | 1017.8 |
| 20260508184007 | 11 | 180 | 4.8 | 8.0 | 0.00 | 0.00 | 0.00 | 78 | 1017.7 |
| 20260508181006 | 12 | 45 | 3.2 | 6.4 | 0.00 | 0.00 | 0.00 | 75 | 1017.3 |
| 20260508180013 | 12 | 90 | 3.2 | 6.4 | 0.00 | 0.00 | 0.00 | 73 | 1017.1 |
| 20260508175009 | 13 | 0 | 4.8 | 8.0 | 0.00 | 0.00 | 0.00 | 71 | 1017.1 |
| 20260508174008 | 13 | 0 | 3.2 | 9.7 | 0.00 | 0.00 | 0.00 | 71 | 1017.2 |
| 20260508173011 | 13 | 45 | 6.4 | 9.7 | 0.00 | 0.00 | 0.00 | 70 | 1017.1 |
| 20260508171008 | 13 | 0 | 4.8 | 11.3 | 0.00 | 0.00 | 0.00 | 69 | 1016.9 |
| 20260508165006 | 15 | 180 | 6.4 | 9.7 | 0.00 | 0.00 | 0.00 | 65 | 1016.5 |
| 20260508164008 | 16 | 0 | 4.8 | 8.0 | 0.00 | 0.00 | 0.00 | 64 | 1016.6 |
| 20260508163008 | 16 | 180 | 3.2 | 8.0 | 0.00 | 0.00 | 0.00 | 64 | 1016.5 |
| 20260508162008 | 16 | 180 | 1.6 | 6.4 | 0.00 | 0.00 | 0.00 | 62 | 1016.6 |
| 20260508161008 | 16 | 180 | 4.8 | 9.7 | 0.00 | 0.00 | 0.00 | 66 | 1016.7 |
| 20260508160013 | 15 | 180 | 4.8 | 9.7 | 0.00 | 0.00 | 0.00 | 66 | 1016.6 |
| 20260508155009 | 16 | 45 | 4.8 | 9.7 | 0.00 | 0.00 | 0.00 | 64 | 1016.6 |
| 20260508154008 | 16 | 180 | 4.8 | 6.4 | 0.00 | 0.00 | 0.00 | 63 | 1016.6 |
| 20260508153009 | 16 | 45 | 6.4 | 9.7 | 0.00 | 0.00 | 0.00 | 66 | 1016.8 |
| 20260508152009 | 15 | 270 | 6.4 | 11.3 | 0.00 | 0.00 | 0.00 | 70 | 1016.9 |
| 20260508150015 | 16 | 180 | 8.0 | 12.9 | 0.00 | 0.00 | 0.00 | 67 | 1016.8 |
| 20260508145006 | 16 | 270 | 6.4 | 12.9 | 0.00 | 0.00 | 0.00 | 71 | 1016.9 |
| 20260508144006 | 15 | 180 | 8.0 | 14.5 | 0.00 | 0.00 | 0.00 | 69 | 1016.9 |
| 20260508142010 | 15 | 180 | 8.0 | 12.9 | 0.00 | 0.00 | 0.00 | 72 | 1017.2 |
| 20260508141006 | 13 | 180 | 8.0 | 11.3 | 0.00 | 0.00 | 0.00 | 77 | 1017.3 |
| 20260508140012 | 13 | 180 | 6.4 | 9.7 | 0.00 | 0.00 | 0.00 | 79 | 1017.3 |
| 20260508135008 | 13 | 270 | 6.4 | 9.7 | 0.00 | 0.00 | 0.00 | 77 | 1017.4 |
| 20260508134008 | 14 | 225 | 4.8 | 8.0 | 0.00 | 0.00 | 0.00 | 75 | 1017.2 |
| 20260508133010 | 13 | 270 | 4.8 | 6.4 | 0.00 | 0.00 | 0.00 | 75 | 1017.3 |
| 20260508132008 | 13 | 180 | 3.2 | 6.4 | 0.00 | 0.00 | 0.00 | 77 | 1017.6 |
| 20260508130015 | 12 | 180 | 1.6 | 4.8 | 0.00 | 0.00 | 0.00 | 75 | 1017.4 |
| 20260508125008 | 13 | 90 | 1.6 | 4.8 | 0.00 | 0.00 | 0.00 | 76 | 1017.6 |
| 20260508124006 | 13 | 90 | 1.6 | 4.8 | 0.00 | 0.00 | 0.00 | 76 | 1017.6 |
| 20260508123012 | 13 | 90 | 1.6 | 6.4 | 0.00 | 0.00 | 0.00 | 77 | 1017.5 |
| 20260508122008 | 12 | 180 | 1.6 | 4.8 | 0.00 | 0.00 | 0.00 | 76 | 1017.6 |
| 20260508121009 | 12 | 180 | 3.2 | 6.4 | 0.00 | 0.00 | 0.00 | 77 | 1017.5 |
| 20260508120013 | 12 | 180 | 1.6 | 4.8 | 0.00 | 0.00 | 0.00 | 80 | 1017.5 |
| 20260508115008 | 12 | 270 | 1.6 | 3.2 | 0.00 | 0.00 | 0.00 | 78 | 1017.5 |
| 20260508113010 | 12 | 0 | 1.6 | 6.4 | 0.00 | 0.00 | 0.00 | 80 | 1017.5 |
| 20260508112011 | 12 | 180 | 0.0 | 4.8 | 0.00 | 0.00 | 0.00 | 81 | 1017.6 |
| 20260508110012 | 11 | 0 | 3.2 | 6.4 | 0.00 | 0.00 | 0.00 | 83 | 1017.6 |
| 20260508103010 | 11 | 0 | 3.2 | 6.4 | 0.00 | 0.00 | 0.00 | 85 | 1017.8 |
| 20260508102009 | 11 | 180 | 3.2 | 4.8 | 0.00 | 0.00 | 0.00 | 87 | 1017.7 |
| 20260508101006 | 10 | 0 | 1.6 | 4.8 | 0.00 | 0.00 | 0.00 | 87 | 1017.9 |
| 20260508100015 | 10 | 180 | 3.2 | 6.4 | 0.00 | 0.00 | 0.00 | 87 | 1017.9 |
| 20260508095009 | 10 | 0 | 3.2 | 6.4 | 0.00 | 0.00 | 0.00 | 89 | 1017.9 |
| 20260508094009 | 10 | 270 | 1.6 | 6.4 | 0.00 | 0.00 | 0.00 | 91 | 1017.9 |
| 20260508093010 | 10 | 180 | 6.4 | 11.3 | 0.00 | 0.00 | 0.00 | 91 | 1017.9 |
| 20260508092008 | 9 | 270 | 6.4 | 9.7 | 0.00 | 0.00 | 0.00 | 95 | 1017.2 |
| 20260508091008 | 9 | 270 | 6.4 | 9.7 | 0.00 | 0.00 | 0.00 | 95 | 1017.2 |
| 20260508090012 | 9 | 270 | 6.4 | 9.7 | 0.00 | 0.00 | 0.00 | 95 | 1017.2 |
| 20260508084009 | 9 | 270 | 6.4 | 9.7 | 0.00 | 0.00 | 0.00 | 95 | 1017.2 |
| 20260508083010 | 9 | 270 | 6.4 | 9.7 | 0.00 | 0.00 | 0.00 | 95 | 1017.2 |
| 20260508082010 | 9 | 270 | 6.4 | 9.7 | 0.00 | 0.00 | 0.00 | 95 | 1017.2 |
| 20260508081008 | 9 | 270 | 6.4 | 9.7 | 0.00 | 0.00 | 0.00 | 95 | 1017.2 |
| 20260508080010 | 9 | 270 | 6.4 | 9.7 | 0.00 | 0.00 | 0.00 | 95 | 1017.2 |
| 20260508075008 | 9 | 270 | 6.4 | 9.7 | 0.00 | 0.00 | 0.00 | 95 | 1017.2 |
| 20260508074008 | 9 | 270 | 6.4 | 9.7 | 0.00 | 0.00 | 0.00 | 95 | 1017.2 |
| 20260508073011 | 9 | 270 | 6.4 | 9.7 | 0.00 | 0.00 | 0.00 | 95 | 1017.2 |
| 20260508072009 | 9 | 270 | 6.4 | 9.7 | 0.00 | 0.00 | 0.00 | 95 | 1017.2 |
| 20260508071008 | 9 | 270 | 6.4 | 9.7 | 0.00 | 0.00 | 0.00 | 95 | 1017.2 |
| 20260508070012 | 9 | 270 | 6.4 | 9.7 | 0.00 | 0.00 | 0.00 | 95 | 1017.2 |
| 20260508065008 | 9 | 180 | 6.4 | 8.0 | 0.00 | 0.00 | 0.00 | 94 | 1017.0 |
| 20260508064008 | 9 | 270 | 6.4 | 9.7 | 0.00 | 0.00 | 0.00 | 93 | 1016.9 |
| 20260508063010 | 9 | 270 | 6.4 | 8.0 | 0.00 | 0.00 | 0.00 | 91 | 1016.9 |
| 20260508060013 | 9 | 180 | 6.4 | 8.0 | 0.00 | 0.00 | 0.00 | 89 | 1016.5 |
| 20260508055008 | 9 | 180 | 6.4 | 9.7 | 0.00 | 0.00 | 0.00 | 88 | 1016.3 |
| 20260508054013 | 10 | 180 | 6.4 | 8.0 | 0.00 | 0.00 | 0.00 | 89 | 1016.3 |
| 20260508053010 | 9 | 180 | 6.4 | 8.0 | 0.00 | 0.00 | 0.00 | 89 | 1016.0 |
| 20260508052009 | 10 | 180 | 6.4 | 8.0 | 0.00 | 0.00 | 0.00 | 88 | 1016.1 |
| 20260508050011 | 9 | 180 | 6.4 | 8.0 | 0.00 | 0.00 | 0.00 | 89 | 1016.1 |
| 20260508045007 | 9 | 270 | 4.8 | 6.4 | 0.00 | 0.00 | 0.00 | 89 | 1016.0 |
| 20260508044008 | 9 | 270 | 6.4 | 6.4 | 0.00 | 0.00 | 0.00 | 89 | 1016.1 |
| 20260508043010 | 9 | 270 | 6.4 | 8.0 | 0.00 | 0.00 | 0.00 | 89 | 1015.9 |